This is the latest recevied weather packets stored in our database for station/object IONIA-WX. If no packets are shown the sender has not sent any weather packets the latest 10 day(s).
| Time | Temp. | Humidity | Pressure | Rain* | Wind** | Luminosity | Snow |
|---|---|---|---|---|---|---|---|
| 1788526817 | 21.11° C | 91% | 986 hPa | 15.49 mm | - | - | - |
| 1788525924 | 20.56° C | 90% | 985.2 hPa | 0.76 mm | - | - | - |
| 1788525022 | 20.56° C | 90% | 985.2 hPa | 0.76 mm | - | - | - |
| 1788524121 | 20.56° C | 90% | 985.1 hPa | 1.52 mm | - | - | - |
| 1788523221 | 20.56° C | 90% | 985.1 hPa | 1.52 mm | - | - | - |
| 1788522348 | 20.56° C | 91% | 983 hPa | 0.51 mm | - | - | - |
| 1788521416 | 20.56° C | 94% | 985.1 hPa | 0 mm | - | - | - |
| 1788519617 | 20.56° C | 94% | 985.1 hPa | 0 mm | - | - | - |
| 1788518715 | 20.56° C | 95% | 984.6 hPa | 0 mm | - | - | - |
| 1788517834 | 20.56° C | 93% | 984.7 hPa | 0 mm | - | - | - |
| 1788516918 | 20° C | 93% | 984.6 hPa | 0 mm | - | - | - |
| 1788516019 | 20° C | 93% | 984.6 hPa | 0 mm | - | - | - |
| 1788515118 | 20° C | 92% | 985.9 hPa | 0.76 mm | - | - | - |
| 1788514216 | 20° C | 95% | 984.1 hPa | 0.76 mm | - | - | - |
| 1788513347 | 20° C | 95% | 984.1 hPa | 0 mm | - | - | - |
| 1788512418 | 20° C | 95% | 984.1 hPa | 0 mm | - | - | - |
| 1788511517 | 20° C | 94% | 984.6 hPa | 0 mm | - | - | - |
| 1788510618 | 20° C | 95% | 983.8 hPa | 0 mm | - | - | - |
| 1788509717 | 19.44° C | 95% | 983.7 hPa | 0 mm | - | - | - |
| 1788508816 | 20° C | 95% | 983.7 hPa | 0 mm | - | - | - |
| 1788507917 | 19.44° C | 94% | 983.9 hPa | 0 mm | - | - | - |
| 1788507018 | 19.44° C | 94% | 983.9 hPa | 0 mm | - | - | - |
| 1788506117 | 19.44° C | 94% | 983.9 hPa | 0 mm | - | - | - |
| 1788505216 | 20° C | 94% | 983.9 hPa | 0 mm | - | - | - |
| 1788504317 | 20° C | 93% | 985.1 hPa | 0 mm | - | - | - |
* Rain latest hour (hover to see other rain measurements)
** Current wind speed in m/s (hover to see current wind gust speed)